Weather Service Report


353 
ASUS43 KDMX 212007
RWRIA 

WEATHER ROUNDUP FOR IOWA
NATIONAL WEATHER SERVICE DES MOINES IA
300 PM CDT SUN SEP 21 2014

NOTE: "FAIR" INDICATES FEW OR NO CLOUDS BELOW 12,000 FEET WITH NO
SIGNIFICANT WEATHER AND/OR OBSTRUCTIONS TO VISIBILITY.

* - THESE STATIONS ARE NOT NWS STATIONS...THUS NOT UNDER NWS
QUALITY CONTROL.  THEY ALSO DO NOT REPORT WEATHER SUCH 
AS PRECIPITATION OR FOG.  

IAZ001>003-012>014-020>022-031>034-043>046-212100-
   NORTHWEST IOWA
  
CITY           SKY/WX    TMP DP  RH WIND       PRES   REMARKS
CARROLL *      MOSUNNY   68  46  45 N15G23    30.17F                  
CHEROKEE *     MOSUNNY   68  46  45 N12G22    30.20S                  
DENISON *      MOSUNNY   68  48  49 N16       30.17F                  
LE MARS *      MOSUNNY   70  46  43 N10G22    30.21F                  
ORANGE CITY *  SUNNY     70  45  40 N10       30.21F                  
SHELDON *      MOSUNNY   68  46  45 NW14G20   30.20S                  
SIOUX CITY     MOSUNNY   72  49  44 NW16G25   30.21F                  
SPENCER        PTSUNNY   68  48  48 NW16G25   30.20S                  
STORM LAKE *   SUNNY     68  52  56 N14G24    30.19F                  
$$
 
IAZ055>058-069>071-079>083-090>094-212100-
   SOUTHWEST IOWA
  
CITY           SKY/WX    TMP DP  RH WIND       PRES   REMARKS
ATLANTIC *     PTSUNNY   70  50  49 N15       30.18S                  
AUDUBON *      MOSUNNY   70  43  37 NW15      30.19S                  
CLARINDA *     SUNNY     73  46  38 N17G24    30.19F                  
COUNCIL BLFS * MOSUNNY   72  50  46 N12G18    30.19S                  
CRESTON *      MOSUNNY   68  48  49 NW13G25   30.17S                  
HARLAN  *      MOSUNNY   70  48  46 N14G23    30.22F                  
LAMONI         SUNNY     69  48  47 N15       30.15F                  
RED OAK *      MOSUNNY   72  48  43 N10G24    30.19S                  
SHENANDOAH *   SUNNY     72  46  40 NW18G25   30.19F                  
$$
 
IAZ047>049-059>061-072>074-084-212100-
   CENTRAL IOWA
  
CITY           SKY/WX    TMP DP  RH WIND       PRES   REMARKS
AMES           PTSUNNY   66  47  50 N21       30.15R                  
ANKENY *       PTSUNNY   68  48  49 NW13G22   30.14S                  
CHARITON *     MOSUNNY   70  48  46 N16       30.14R                  
DES MOINES     PTSUNNY   71  47  42 N16       30.14S                  
GRINNELL*      PTSUNNY   66  48  52 NW13G23   30.14R                  
KNOXVILLE *    PTSUNNY   68  46  45 N18G26    30.12R                  
MARSHALLTOWN   CLOUDY    64  48  56 N17G24    30.13S                  
PELLA *        MOSUNNY   70  50  49 N10       30.14R                  
PERRY *          N/A     70  46  43 N13G23    30.16S                  
$$
 
IAZ004>006-015-016-023>025-035-036-212100-
   NORTH CENTRAL IOWA
  
CITY           SKY/WX    TMP DP  RH WIND       PRES   REMARKS
ALGONA *       MOSUNNY   66  48  52 N13G22    30.17F                  
CLARION *        N/A     64  46  52 N14G23    30.16S                  
ESTHERVILLE    CLOUDY    64  48  56 N17G24    30.19R                  
FORT DODGE *   CLOUDY    66  46  48 N10G18    30.17F                  
MASON CITY     PTSUNNY   63  47  55 N20G25    30.15F                  
FOREST CITY *  PTSUNNY   64  48  55 N17       30.15F                  
IOWA FALLS *   CLOUDY    64  46  52 NW15G24   30.15S                  
$$

IAZ007>011-017>019-026>030-037>042-050>054-066-212100-
   NORTHEAST IOWA
  
CITY           SKY/WX    TMP DP  RH WIND       PRES   REMARKS
CEDAR RAPIDS   CLOUDY    62  52  69 NW13      30.09S                  
CHARLES CITY * CLOUDY    63  48  59 NW13G21   30.13S                  
CLINTON *      CLOUDY    63  52  67 NW12G18   30.08R                  
DECORAH *      PTSUNNY   63  48  59 NW14G24   30.08S                  
DUBUQUE        PTSUNNY   63  52  67 NW16      30.05S                  
MONTICELLO *   CLOUDY    64  52  63 N10G18    30.07R                  
OELWEIN *      CLOUDY    64  48  55 NW21      30.10S                  
WATERLOO       CLOUDY    65  48  54 NW17G26   30.11S                  
$$
 
IAZ064-065-067-068-078-212100-
   EAST CENTRAL IOWA
  
CITY           SKY/WX    TMP DP  RH WIND       PRES   REMARKS
DAVENPORT      CLOUDY    62  49  62 N15G22    30.07R                  
IOWA CITY        N/A     63  52  67 NW9       30.11R                  
MT. PLEASANT * PTSUNNY   66  46  48 N18G24    30.09S                  
MUSCATINE *    CLOUDY    64  50  59 NW14G21   30.09S                  
QUAD CITIES    CLOUDY    64  50  60 N13       30.06R                  
$$
 
IAZ062-063-075>077-085>089-095>099-212100-
   SOUTHEAST IOWA
  
CITY           SKY/WX    TMP DP  RH WIND       PRES   REMARKS
BURLINGTON     MOSUNNY   68  51  54 N14G24    30.07R                  
FAIRFIELD *    MOSUNNY   68  50  52 N16G23    30.10S                  
FORT MADISON * MOSUNNY   70  48  46 N13G22    30.09R                  
KEOKUK *       PTSUNNY   68  52  56 NW13G20   30.07S                  
OSKALOOSA *      N/A     68  50  52 N14G20    30.11S                  
CENTERVILLE *  SUNNY     70  48  46 NW12G20   30.14S                  
OTTUMWA        MOSUNNY   69  49  48 N17G24    30.10S                  
WASHINGTON *   MOSUNNY   66  52  59 N20       30.10S                  
$$

ABBREVIATIONS USED IN REMARKS
   TC - TEMPERATURES IN CELSIUS
  WCI - WIND CHILL INDEX
   HX - HEAT INDEX
  VSB - VISIBILITY  
$$


Return to Home page


Western Regional Climate Center, wrcc@dri.edu